Hourly Weather Allmend

Today, 4 March, Thursday

Time Temperature Precipitation Wind Pressure Humidity
00:00 +5°C° 0 mm 1 mps 687 mmHg 59%
01:00 +4°C° 0 mm 1 mps 686 mmHg 58%
02:00 +4°C° 0 mm 1 mps 686 mmHg 59%
03:00 +4°C° 0 mm 1 mps 686 mmHg 59%
04:00 +4°C° 0 mm 1 mps 685 mmHg 60%
05:00 +4°C° 0 mm 1 mps 685 mmHg 61%
06:00 +4°C° 0 mm 1 mps 685 mmHg 62%
07:00 +4°C° 0 mm 1 mps 685 mmHg 61%
08:00 +5°C° 0 mm 1 mps 685 mmHg 62%
09:00 +7°C° 0 mm 1 mps 685 mmHg 62%
10:00 +8°C° 0 mm 0 mps 685 mmHg 63%
11:00 +10°C° 0 mm 1 mps 684 mmHg 63%
12:00 +10°C° 0 mm 1 mps 684 mmHg 63%
13:00 +10°C° 0 mm 2 mps 684 mmHg 62%
14:00 +10°C° 0 mm 2 mps 683 mmHg 64%
15:00 +9°C° 0 mm 2 mps 683 mmHg 66%
16:00 +9°C° 0 mm 2 mps 682 mmHg 67%
17:00 +9°C° 0.2 mm 1 mps 682 mmHg 74%
18:00 +7°C° 0.2 mm 1 mps 682 mmHg 80%
19:00 +5°C° 0.2 mm 0 mps 681 mmHg 87%
20:00 +6°C° 1 mm 1 mps 681 mmHg 89%
21:00 +5°C° 1 mm 1 mps 682 mmHg 92%
22:00 +5°C° 1 mm 1 mps 682 mmHg 95%
23:00 +5°C° 0.7 mm 1 mps 682 mmHg 95%

Tomorrow, 5 March, Friday

Time Temperature Precipitation Wind Pressure Humidity
00:00 +5°C° 0.7 mm 1 mps 682 mmHg 95%
01:00 +5°C° 0.7 mm 1 mps 682 mmHg 95%
02:00 +5°C° 0.3 mm 1 mps 681 mmHg 96%
03:00 +4°C° 0.3 mm 1 mps 681 mmHg 96%
04:00 +3°C° 0.3 mm 0 mps 681 mmHg 96%
05:00 +3°C° 0.2 mm 0 mps 681 mmHg 96%
06:00 +3°C° 0.2 mm 0 mps 681 mmHg 96%
07:00 +2°C° 0.2 mm 0 mps 681 mmHg 96%
08:00 +3°C° 0.1 mm 0 mps 681 mmHg 94%
09:00 +5°C° 0.1 mm 1 mps 682 mmHg 92%
10:00 +5°C° 0.1 mm 1 mps 682 mmHg 89%
11:00 +5°C° 0.2 mm 1 mps 682 mmHg 90%
12:00 +4°C° 0.2 mm 2 mps 682 mmHg 91%
13:00 +4°C° 0.2 mm 2 mps 682 mmHg 92%
14:00 +4°C° 0.2 mm 2 mps 682 mmHg 92%
15:00 +4°C° 0.2 mm 2 mps 682 mmHg 93%
16:00 +3°C° 0.2 mm 2 mps 681 mmHg 93%
17:00 +3°C° 0.3 mm 2 mps 682 mmHg 94%
18:00 +2°C° 0.3 mm 2 mps 682 mmHg 95%
19:00 +2°C° 0.3 mm 2 mps 682 mmHg 97%
20:00 +1°C° 0.1 mm 2 mps 683 mmHg 96%
21:00 +1°C° 0.1 mm 2 mps 683 mmHg 95%
22:00 -1°C° 0.1 mm 2 mps 684 mmHg 94%
23:00 -1°C° 0 mm 2 mps 684 mmHg 93%

Day after tomorrow, 6 March, Saturday

Time Temperature Precipitation Wind Pressure Humidity
00:00 -2°C° 0 mm 2 mps 684 mmHg 92%
01:00 -2°C° 0 mm 2 mps 684 mmHg 90%
02:00 -2°C° 0 mm 2 mps 684 mmHg 89%
03:00 -3°C° 0 mm 2 mps 684 mmHg 88%
04:00 -3°C° 0 mm 2 mps 684 mmHg 87%
05:00 -3°C° 0 mm 2 mps 684 mmHg 86%
06:00 -2°C° 0 mm 1 mps 684 mmHg 86%
07:00 -2°C° 0 mm 1 mps 684 mmHg 86%
08:00 -1°C° 0 mm 1 mps 685 mmHg 84%
09:00 +1°C° 0 mm 1 mps 685 mmHg 83%
10:00 +2°C° 0 mm 1 mps 685 mmHg 81%
11:00 +3°C° 0 mm 1 mps 685 mmHg 81%
12:00 +4°C° 0 mm 1 mps 686 mmHg 81%
13:00 +5°C° 0 mm 1 mps 686 mmHg 81%
14:00 +5°C° 0 mm 1 mps 686 mmHg 80%
15:00 +5°C° 0 mm 1 mps 686 mmHg 80%
16:00 +5°C° 0 mm 1 mps 685 mmHg 79%
17:00 +4°C° 0 mm 1 mps 685 mmHg 84%
18:00 +3°C° 0 mm 1 mps 685 mmHg 88%
19:00 0°C° 0 mm 0 mps 685 mmHg 93%
20:00 +1°C° 0 mm 1 mps 685 mmHg 91%
21:00 +1°C° 0 mm 1 mps 686 mmHg 89%
22:00 0°C° 0 mm 1 mps 686 mmHg 87%
23:00 0°C° 0 mm 1 mps 686 mmHg 85%

7 March, Sunday

Time Temperature Precipitation Wind Pressure Humidity
00:00 0°C° 0 mm 1 mps 685 mmHg 84%
01:00 0°C° 0 mm 1 mps 685 mmHg 82%
02:00 0°C° 0 mm 1 mps 685 mmHg 81%
03:00 0°C° 0 mm 1 mps 685 mmHg 80%
04:00 +1°C° 0 mm 1 mps 685 mmHg 78%
05:00 +1°C° 0 mm 1 mps 685 mmHg 79%
06:00 +1°C° 0 mm 1 mps 685 mmHg 79%
07:00 +1°C° 0 mm 1 mps 685 mmHg 80%
08:00 +2°C° 0 mm 1 mps 685 mmHg 77%
09:00 +3°C° 0 mm 0 mps 685 mmHg 74%
10:00 +5°C° 0 mm 0 mps 685 mmHg 71%
11:00 +6°C° 0 mm 0 mps 685 mmHg 71%
12:00 +8°C° 0 mm 1 mps 684 mmHg 72%
13:00 +8°C° 0 mm 1 mps 684 mmHg 73%
14:00 +8°C° 0.3 mm 1 mps 683 mmHg 76%
15:00 +8°C° 0.3 mm 1 mps 683 mmHg 78%
16:00 +7°C° 0.3 mm 1 mps 682 mmHg 81%
17:00 +6°C° 0.3 mm 1 mps 682 mmHg 85%
18:00 +4°C° 0.3 mm 0 mps 682 mmHg 90%
19:00 +2°C° 0.3 mm 0 mps 681 mmHg 94%
20:00 +2°C° 0 mm 0 mps 681 mmHg 93%
21:00 +1°C° 0 mm 0 mps 681 mmHg 92%
22:00 +2°C° 0 mm 1 mps 681 mmHg 91%
23:00 +2°C° 0 mm 1 mps 681 mmHg 91%

8 March, Monday

Time Temperature Precipitation Wind Pressure Humidity
00:00 +1°C° 0 mm 0 mps 681 mmHg 91%
01:00 +1°C° 0 mm 0 mps 681 mmHg 90%
02:00 +1°C° 0 mm 0 mps 681 mmHg 92%
03:00 +1°C° 0 mm 0 mps 680 mmHg 93%
04:00 +1°C° 0 mm 0 mps 680 mmHg 95%
05:00 +1°C° 0 mm 0 mps 680 mmHg 95%
06:00 +1°C° 0 mm 0 mps 680 mmHg 96%
07:00 +2°C° 0 mm 1 mps 680 mmHg 96%
08:00 +2°C° 0.1 mm 1 mps 680 mmHg 94%
09:00 +3°C° 0.1 mm 1 mps 680 mmHg 93%
10:00 +3°C° 0.1 mm 2 mps 680 mmHg 91%
11:00 +3°C° 0.1 mm 2 mps 680 mmHg 88%
12:00 +4°C° 0.1 mm 2 mps 680 mmHg 84%
13:00 +4°C° 0.1 mm 2 mps 680 mmHg 81%
14:00 +4°C° 0.1 mm 2 mps 680 mmHg 81%
15:00 +4°C° 0.1 mm 2 mps 680 mmHg 80%
16:00 +4°C° 0.1 mm 2 mps 680 mmHg 79%
17:00 +3°C° 0 mm 2 mps 680 mmHg 83%
18:00 +2°C° 0 mm 2 mps 680 mmHg 86%
19:00 +2°C° 0 mm 1 mps 680 mmHg 90%
20:00 +1°C° 0 mm 1 mps 680 mmHg 90%
21:00 0°C° 0 mm 1 mps 681 mmHg 91%
22:00 0°C° 0 mm 1 mps 681 mmHg 91%
23:00 -1°C° 0 mm 1 mps 681 mmHg 89%

9 March, Tuesday

Time Temperature Precipitation Wind Pressure Humidity
00:00 -1°C° 0 mm 1 mps 681 mmHg 87%
01:00 -2°C° 0 mm 1 mps 681 mmHg 86%
02:00 -2°C° 0 mm 1 mps 681 mmHg 85%
03:00 -2°C° 0 mm 1 mps 681 mmHg 85%
04:00 -2°C° 0 mm 1 mps 681 mmHg 85%
05:00 -2°C° 0 mm 1 mps 681 mmHg 85%
06:00 -2°C° 0 mm 1 mps 681 mmHg 85%
07:00 -3°C° 0 mm 1 mps 681 mmHg 85%
08:00 -1°C° 0 mm 1 mps 682 mmHg 80%
09:00 +1°C° 0 mm 1 mps 682 mmHg 75%
10:00 +3°C° 0 mm 1 mps 683 mmHg 70%
11:00 +4°C° 0 mm 1 mps 683 mmHg 69%
12:00 +4°C° 0 mm 2 mps 683 mmHg 67%
13:00 +5°C° 0 mm 2 mps 684 mmHg 66%
14:00 +4°C° 0 mm 2 mps 683 mmHg 66%
15:00 +4°C° 0 mm 2 mps 683 mmHg 66%
16:00 +4°C° 0 mm 2 mps 683 mmHg 66%
17:00 +3°C° 0 mm 2 mps 683 mmHg 72%
18:00 +2°C° 0 mm 1 mps 683 mmHg 78%
19:00 +1°C° 0 mm 1 mps 683 mmHg 83%
20:00 0°C° 0 mm 1 mps 684 mmHg 84%
21:00 0°C° 0 mm 1 mps 684 mmHg 84%
22:00 -1°C° 0 mm 1 mps 684 mmHg 84%
23:00 -1°C° 0 mm 1 mps 684 mmHg 83%
Show more